SBSS (USA 216)

导读 | 豆包AI

SBSS(USA 216)是美国空军于2010年9月26日发射的天基太空监视卫星,作为美国天基监视系统Block 10阶段的"探路者"任务卫星,它替代了老化的天基可见光探测器,弥补了陆基监视受天气视野限制的不足。搭载深空望远镜数码相机,可实时探测跟踪地球轨道卫星与太空碎片,获取轨道数据,支撑美国太空态势感知与军事太空控制行动,是美国争夺制太空权的关键部署。

基本信息
目录编号:
37168
目录名称:
SBSS (USA 216)
国际标识:
2010-048A
轨道中心:
EARTH
卫星名称:
SBSS (USA 216)
卫星全名:
--
卫星状态:
在轨 (已飞行5695 天)
发射日期:
2010-09-26 UTC
国别 :
美国 (US)
星等 :
--
轨道信息
数据来源 国际轨道数据
星历时间: 2026-04-30T13:39:24+0800
9小时前
查看轨道信息
半长轴: 6895.463km
偏心率: 0.0081873
轨道倾角: 97.740°
近地点辐角 10.189°
升交点赤经 4.756°
平近点角 103.558°
近地点: 460.87km
远地点: 573.782km
周期: 94.974分钟
每日圈数: 15.16204
详细信息
使用方式:
暂无
2D轨道图
3D轨道图
轨道高度分析图
轨道倾角分析图
轨道综合分析图
查看轨道综合分析图